TimeCDT,TemperatureF,Dew PointF,Humidity,Sea Level PressureIn,VisibilityMPH,Wind Direction,Wind SpeedMPH,Gust SpeedMPH,PrecipitationIn,Events,Conditions,WindDirDegrees,DateUTC
12:14 AM,73.4,51.8,47,29.50,10.0,SSW,15.0,18.4,N/A,,Clear,210,2013-10-01 05:14:00
12:34 AM,73.4,51.8,47,29.50,10.0,SW,12.7,19.6,N/A,,Clear,220,2013-10-01 05:34:00
12:53 AM,73.4,51.8,47,29.50,10.0,SW,13.8,19.6,N/A,,Clear,220,2013-10-01 05:53:00
1:14 AM,73.4,51.8,47,29.50,10.0,SW,17.3,23.0,N/A,,Clear,230,2013-10-01 06:14:00
1:34 AM,73.4,51.8,47,29.53,10.0,WSW,15.0,18.4,N/A,,Clear,240,2013-10-01 06:34:00
1:53 AM,71.6,51.8,50,29.55,10.0,WSW,12.7,18.4,N/A,,Clear,250,2013-10-01 06:53:00
2:14 AM,71.6,51.8,50,29.57,10.0,West,10.4,16.1,N/A,,Clear,280,2013-10-01 07:14:00
2:34 AM,69.8,51.8,53,29.59,10.0,West,9.2,-,N/A,,Clear,280,2013-10-01 07:34:00
2:53 AM,69.8,51.8,53,29.61,10.0,WNW,9.2,-,N/A,,Clear,290,2013-10-01 07:53:00
3:13 AM,66.2,51.8,60,29.64,10.0,NW,13.8,21.9,N/A,,Clear,310,2013-10-01 08:13:00
3:33 AM,66.2,51.8,60,29.65,10.0,WNW,11.5,-,N/A,,Clear,290,2013-10-01 08:33:00
3:53 AM,64.4,51.8,64,29.68,10.0,WNW,11.5,-,N/A,,Clear,300,2013-10-01 08:53:00
4:13 AM,62.6,51.8,68,29.69,10.0,NW,11.5,-,N/A,,Clear,310,2013-10-01 09:13:00
4:34 AM,62.6,51.8,68,29.70,10.0,WNW,6.9,-,N/A,,Clear,300,2013-10-01 09:34:00
4:53 AM,60.8,51.8,72,29.71,10.0,WNW,6.9,-,N/A,,Clear,290,2013-10-01 09:53:00
5:13 AM,59.0,51.8,77,29.73,10.0,WNW,8.1,-,N/A,,Clear,290,2013-10-01 10:13:00
5:34 AM,60.8,48.2,63,29.75,10.0,WNW,10.4,-,N/A,,Clear,300,2013-10-01 10:34:00
5:53 AM,57.2,48.2,72,29.76,10.0,WNW,6.9,-,N/A,,Clear,300,2013-10-01 10:53:00
6:13 AM,57.2,46.4,67,29.78,10.0,WNW,10.4,-,N/A,,Clear,290,2013-10-01 11:13:00
6:34 AM,55.4,46.4,72,29.79,10.0,West,6.9,-,N/A,,Clear,270,2013-10-01 11:34:00
6:53 AM,55.4,46.4,72,29.80,10.0,West,8.1,-,N/A,,Clear,260,2013-10-01 11:53:00
7:13 AM,55.4,46.4,72,29.81,10.0,WSW,6.9,-,N/A,,Clear,250,2013-10-01 12:13:00
7:33 AM,55.4,44.6,67,29.83,10.0,West,6.9,-,N/A,,Clear,270,2013-10-01 12:33:00
7:53 AM,53.6,44.6,72,29.83,10.0,West,6.9,-,N/A,,Clear,270,2013-10-01 12:53:00
8:14 AM,55.4,44.6,67,29.85,10.0,West,5.8,-,N/A,,Clear,270,2013-10-01 13:14:00
8:33 AM,57.2,44.6,63,29.85,10.0,West,5.8,-,N/A,,Clear,270,2013-10-01 13:33:00
8:54 AM,60.8,44.6,55,29.86,10.0,WNW,10.4,-,N/A,,Clear,290,2013-10-01 13:54:00
9:14 AM,62.6,42.8,48,29.86,10.0,WNW,11.5,17.3,N/A,,Clear,290,2013-10-01 14:14:00
9:33 AM,62.6,42.8,48,29.87,10.0,WNW,12.7,-,N/A,,Clear,300,2013-10-01 14:33:00
9:54 AM,64.4,42.8,45,29.88,10.0,NW,15.0,21.9,N/A,,Clear,310,2013-10-01 14:54:00
10:14 AM,66.2,41.0,40,29.90,10.0,NW,16.1,21.9,N/A,,Clear,310,2013-10-01 15:14:00
10:33 AM,66.2,39.2,37,29.90,10.0,NW,18.4,24.2,N/A,,Clear,310,2013-10-01 15:33:00
10:54 AM,68.0,39.2,35,29.89,10.0,NW,12.7,25.3,N/A,,Clear,310,2013-10-01 15:54:00
11:14 AM,69.8,37.4,31,29.90,10.0,NW,18.4,26.5,N/A,,Clear,320,2013-10-01 16:14:00
11:33 AM,69.8,39.2,33,29.91,10.0,NW,12.7,23.0,N/A,,Clear,310,2013-10-01 16:33:00
11:54 AM,69.8,35.6,28,29.90,10.0,WNW,18.4,24.2,N/A,,Clear,300,2013-10-01 16:54:00
12:14 PM,71.6,35.6,27,29.90,10.0,WNW,18.4,27.6,N/A,,Clear,300,2013-10-01 17:14:00
12:33 PM,71.6,33.8,25,29.90,10.0,WNW,17.3,24.2,N/A,,Clear,300,2013-10-01 17:33:00
12:54 PM,73.4,32.0,22,29.91,10.0,WNW,17.3,24.2,N/A,,Clear,290,2013-10-01 17:54:00
1:14 PM,73.4,33.8,23,29.91,10.0,WNW,18.4,25.3,N/A,,Clear,290,2013-10-01 18:14:00
1:33 PM,73.4,33.8,23,29.91,10.0,NW,15.0,23.0,N/A,,Clear,310,2013-10-01 18:33:00
1:54 PM,73.4,33.8,23,29.91,10.0,WNW,15.0,23.0,N/A,,Clear,290,2013-10-01 18:54:00
2:13 PM,73.4,30.2,20,29.91,10.0,WNW,16.1,26.5,N/A,,Clear,300,2013-10-01 19:13:00
2:33 PM,73.4,33.8,23,29.91,10.0,WNW,15.0,-,N/A,,Clear,290,2013-10-01 19:33:00
2:54 PM,75.2,30.2,19,29.91,10.0,West,16.1,24.2,N/A,,Clear,270,2013-10-01 19:54:00
3:14 PM,75.2,28.4,18,29.91,10.0,West,13.8,25.3,N/A,,Clear,280,2013-10-01 20:14:00
3:33 PM,75.2,30.2,19,29.91,10.0,West,13.8,20.7,N/A,,Clear,270,2013-10-01 20:33:00
3:54 PM,75.2,28.4,18,29.91,10.0,West,16.1,20.7,N/A,,Clear,280,2013-10-01 20:54:00
4:14 PM,75.2,30.2,19,29.92,10.0,West,15.0,21.9,N/A,,Clear,280,2013-10-01 21:14:00
4:33 PM,75.2,30.2,19,29.91,10.0,West,15.0,20.7,N/A,,Clear,280,2013-10-01 21:33:00
4:54 PM,75.2,30.2,19,29.91,10.0,West,11.5,17.3,N/A,,Clear,270,2013-10-01 21:54:00
5:14 PM,75.2,28.4,18,29.92,10.0,West,13.8,20.7,N/A,,Clear,270,2013-10-01 22:14:00
5:33 PM,73.4,30.2,20,29.92,10.0,West,11.5,17.3,N/A,,Clear,270,2013-10-01 22:33:00
5:53 PM,73.4,28.4,19,29.92,10.0,West,13.8,-,N/A,,Clear,270,2013-10-01 22:53:00
6:13 PM,71.6,30.2,22,29.92,10.0,West,4.6,-,N/A,,Clear,270,2013-10-01 23:13:00
6:34 PM,69.8,32.0,25,29.93,10.0,West,6.9,-,N/A,,Clear,270,2013-10-01 23:34:00
6:54 PM,68.0,32.0,26,29.93,10.0,West,4.6,-,N/A,,Clear,280,2013-10-01 23:54:00
7:13 PM,64.4,33.8,32,29.94,10.0,WSW,3.5,-,N/A,,Clear,250,2013-10-02 00:13:00
7:34 PM,64.4,33.8,32,29.94,10.0,West,3.5,-,N/A,,Clear,260,2013-10-02 00:34:00
7:54 PM,59.0,35.6,42,29.95,10.0,SW,5.8,-,N/A,,Clear,230,2013-10-02 00:54:00
8:13 PM,59.0,37.4,45,29.95,10.0,WSW,5.8,-,N/A,,Clear,240,2013-10-02 01:13:00
8:34 PM,57.2,37.4,48,29.96,10.0,SW,6.9,-,N/A,,Clear,230,2013-10-02 01:34:00
8:53 PM,55.4,39.2,54,29.96,10.0,WSW,4.6,-,N/A,,Clear,240,2013-10-02 01:53:00
9:13 PM,55.4,39.2,54,29.96,10.0,WSW,4.6,-,N/A,,Clear,250,2013-10-02 02:13:00
9:34 PM,55.4,39.2,54,29.97,10.0,Calm,Calm,-,N/A,,Clear,0,2013-10-02 02:34:00
9:53 PM,53.6,39.2,58,29.97,10.0,WSW,4.6,-,N/A,,Clear,240,2013-10-02 02:53:00
10:13 PM,53.6,39.2,58,29.98,10.0,SW,6.9,-,N/A,,Clear,230,2013-10-02 03:13:00
10:34 PM,50.0,39.2,66,29.99,10.0,Calm,Calm,-,N/A,,Clear,0,2013-10-02 03:34:00
10:53 PM,51.8,39.2,62,29.99,10.0,Calm,Calm,-,N/A,,Clear,0,2013-10-02 03:53:00
11:13 PM,50.0,39.2,66,29.99,10.0,Calm,Calm,-,N/A,,Clear,0,2013-10-02 04:13:00
11:34 PM,48.2,41.0,76,30.00,10.0,Calm,Calm,-,N/A,,Clear,0,2013-10-02 04:34:00
11:53 PM,48.2,39.2,71,30.00,10.0,Calm,Calm,-,N/A,,Clear,0,2013-10-02 04:53:00